Location: Star Hoppers Observatory
(42.7905°N, 83.6127°W)
Time: 08:10:39
(UTC-04:00)

NOSS 3-1 (A) - Visible Passes

Search period start: 30 July 2015 00:00
Search period end: 09 August 2015 00:00
Orbit: 877 x 1336 km, 63.4° (Epoch: 13 July)

Date Brightness Start Highest point End Pass type
(mag) Time Alt. Az. Time Alt. Az. Time Alt. Az.
30 Jul 5.7 04:07:47 10° SE 04:09:54 12° ESE 04:12:29 10° E visible
31 Jul 4.1 05:09:26 10° S 05:15:09 50° ESE 05:21:27 10° NE visible
01 Aug 4.8 04:26:12 12° SSE 04:30:44 30° ESE 04:36:17 10° NE visible
02 Aug 5.4 03:43:12 12° SE 03:46:25 18° ESE 03:50:35 10° ENE visible
02 Aug 3.5 05:30:40 11° SW 05:36:29 79° NW 05:43:11 10° NE visible
03 Aug 3.7 04:47:37 20° SSW 04:51:50 68° ESE 04:58:23 10° NE visible
04 Aug 4.3 04:04:31 26° SSE 04:07:20 41° ESE 04:13:24 10° NE visible
04 Aug 4.3 05:52:30 10° WSW 05:58:16 41° NW 06:04:37 10° NNE visible
05 Aug 4.8 03:21:24 22° SE 03:22:58 25° ESE 03:28:05 10° ENE visible
05 Aug 3.7 05:08:51 19° SW 05:13:20 61° NW 05:19:58 10° NNE visible
06 Aug 5.4 02:38:14 14° ESE 02:38:40 14° ESE 02:41:59 10° ENE visible
06 Aug 3.4 04:25:41 34° SSW 04:28:34 88° SE 04:35:15 10° NE visible
07 Aug 3.7 03:42:29 45° SSE 03:43:59 56° ESE 03:50:23 10° NE visible
07 Aug 4.6 05:29:55 11° W 05:35:17 33° NW 05:41:21 10° NNE visible
08 Aug 4.4 02:59:14 34° ESE 02:59:32 34° ESE 03:05:18 10° NE visible
08 Aug 4.1 04:46:41 24° WSW 04:50:15 48° NW 04:56:44 10° NNE visible
